"read_dt","SO2 (ppb)","flags","PMT voltage (V)","lamp voltage (V)","lamp intensity (Hz)","internal temp (C)","react chamber temp (C)","sample flow (l/min)","pres (mmHg)","SO2 bkg (ppb)","SO2 coefficient"
2017-03-29 00:00:00,1630E-3,5C000400,-0724,0837,12087,029.7,045.5,0.218,750.4,01.17,0.508
2017-03-29 00:01:00,1740E-3,5C000400,-0724,0836,12020,029.7,045.5,0.218,750.5,01.17,0.508
2017-03-29 00:02:00,1772E-3,5C000400,-0724,0837,12067,029.7,045.5,0.218,750.2,01.17,0.508
2017-03-29 00:03:00,1657E-3,5C000400,-0724,0837,12112,029.7,045.5,0.218,750.2,01.17,0.508
2017-03-29 00:04:00,1704E-3,5C000400,-0724,0836,12148,029.7,045.5,0.218,750.3,01.17,0.508
2017-03-29 00:05:00,1762E-3,5C000400,-0724,0838,12226,029.7,045.5,0.218,750.3,01.17,0.508
2017-03-29 00:06:00,1817E-3,5C000400,-0724,0837,12012,029.7,045.5,0.217,750.3,01.17,0.508
2017-03-29 00:07:00,1740E-3,5C000400,-0724,0835,12165,029.7,045.5,0.218,750.3,01.17,0.508
2017-03-29 00:08:00,1666E-3,5C000400,-0724,0837,12120,029.8,045.5,0.218,750.3,01.17,0.508
2017-03-29 00:09:00,1886E-3,5C000400,-0724,0836,12192,029.8,045.5,0.217,750.1,01.17,0.508
2017-03-29 00:10:00,1767E-3,5C000400,-0724,0836,12151,029.7,045.5,0.218,750.4,01.17,0.508
2017-03-29 00:11:00,1709E-3,5C000400,-0724,0836,12183,029.8,045.5,0.218,750.4,01.17,0.508
2017-03-29 00:12:00,1664E-3,5C000400,-0724,0837,12070,029.8,045.5,0.217,750.4,01.17,0.508
2017-03-29 00:13:00,1745E-3,5C000400,-0724,0837,12059,029.8,045.5,0.218,750.4,01.17,0.508
2017-03-29 00:14:00,1764E-3,5C000400,-0724,0836,12006,029.8,045.5,0.218,750.3,01.17,0.508
2017-03-29 00:15:00,1684E-3,5C000400,-0724,0836,11883,029.8,045.5,0.217,750.4,01.17,0.508
2017-03-29 00:16:00,1659E-3,5C000400,-0724,0836,12098,029.8,045.5,0.218,750.4,01.17,0.508
2017-03-29 00:17:00,1729E-3,5C000400,-0724,0836,11994,029.8,045.5,0.218,750.4,01.17,0.508
2017-03-29 00:18:00,1543E-3,5C000400,-0724,0837,12067,029.8,045.5,0.217,750.2,01.17,0.508
2017-03-29 00:19:00,1733E-3,5C000400,-0724,0837,12039,029.8,045.5,0.218,750.2,01.17,0.508
2017-03-29 00:20:00,1657E-3,5C000400,-0724,0836,12158,029.8,045.5,0.218,750.0,01.17,0.508
2017-03-29 00:21:00,1599E-3,5C000400,-0724,0835,11963,029.8,045.5,0.217,750.0,01.17,0.508
2017-03-29 00:22:00,1863E-3,5C000400,-0724,0837,11929,029.8,045.5,0.218,750.1,01.17,0.508
2017-03-29 00:23:00,1634E-3,5C000400,-0724,0836,12195,029.8,045.5,0.218,750.2,01.17,0.508
2017-03-29 00:24:00,1835E-3,5C000400,-0724,0837,11994,029.8,045.5,0.218,749.9,01.17,0.508
2017-03-29 00:25:00,1814E-3,5C000400,-0724,0837,12102,029.8,045.5,0.218,749.9,01.17,0.508
2017-03-29 00:26:00,1677E-3,5C000400,-0724,0836,12032,029.8,045.5,0.218,750.0,01.17,0.508
2017-03-29 00:27:00,1644E-3,5C000400,-0724,0836,12135,029.8,045.5,0.218,749.8,01.17,0.508
2017-03-29 00:28:00,1618E-3,5C000400,-0724,0836,11950,029.8,045.5,0.218,749.8,01.17,0.508
2017-03-29 00:29:00,1734E-3,5C000400,-0724,0836,12172,029.8,045.5,0.217,749.8,01.17,0.508
2017-03-29 00:30:00,1613E-3,5C000400,-0724,0836,12030,029.8,045.5,0.218,749.8,01.17,0.508
2017-03-29 00:31:00,1690E-3,5C000400,-0724,0837,12077,029.8,045.5,0.218,749.6,01.17,0.508
2017-03-29 00:32:00,1707E-3,5C000400,-0724,0836,12051,029.8,045.5,0.217,749.6,01.17,0.508
2017-03-29 00:33:00,1664E-3,5C000400,-0724,0836,12087,029.8,045.5,0.218,749.8,01.17,0.508
2017-03-29 00:34:00,1676E-3,5C000400,-0724,0837,12142,029.8,045.5,0.218,749.8,01.17,0.508
2017-03-29 00:35:00,1607E-3,5C000400,-0724,0836,12136,029.8,045.5,0.217,749.8,01.17,0.508
2017-03-29 00:36:00,1648E-3,5C000400,-0724,0837,12191,029.8,045.5,0.218,749.6,01.17,0.508
2017-03-29 00:37:00,1797E-3,5C000400,-0724,0836,12000,029.8,045.5,0.218,749.7,01.17,0.508
2017-03-29 00:38:00,1576E-3,5C000400,-0724,0836,11969,029.8,045.5,0.217,749.6,01.17,0.508
2017-03-29 00:39:00,1694E-3,5C000400,-0724,0836,11898,029.8,045.5,0.217,749.4,01.17,0.508
2017-03-29 00:40:00,1781E-3,5C000400,-0724,0837,12083,029.8,045.5,0.218,749.3,01.17,0.508
2017-03-29 00:41:00,1704E-3,5C000400,-0724,0836,11925,029.8,045.5,0.218,749.5,01.17,0.508
2017-03-29 00:42:00,1730E-3,5C000400,-0724,0836,12003,029.8,045.5,0.217,749.7,01.17,0.508
2017-03-29 00:43:00,1772E-3,5C000400,-0724,0837,12179,029.8,045.5,0.218,749.6,01.17,0.508
2017-03-29 00:44:00,1684E-3,5C000400,-0724,0836,11968,029.8,045.5,0.218,749.5,01.17,0.508
2017-03-29 00:45:00,1841E-3,5C000400,-0724,0836,12106,029.8,045.5,0.218,749.5,01.17,0.508
2017-03-29 00:46:00,1631E-3,5C000400,-0724,0837,12025,029.8,045.5,0.217,749.5,01.17,0.508
2017-03-29 00:47:00,1560E-3,5C000400,-0724,0837,11976,029.8,045.5,0.218,749.5,01.17,0.508
2017-03-29 00:48:00,1762E-3,5C000400,-0724,0837,11957,029.8,045.5,0.218,749.2,01.17,0.508
2017-03-29 00:49:00,1693E-3,5C000400,-0724,0835,12182,029.8,045.5,0.217,749.5,01.17,0.508
2017-03-29 00:50:00,1812E-3,5C000400,-0724,0836,12031,029.8,045.5,0.217,749.3,01.17,0.508
2017-03-29 00:51:00,1689E-3,5C000400,-0724,0837,11940,029.8,045.5,0.218,749.4,01.17,0.508
2017-03-29 00:52:00,1760E-3,5C000400,-0724,0837,12111,029.8,045.5,0.218,749.3,01.17,0.508
2017-03-29 00:53:00,1664E-3,5C000400,-0724,0836,12101,029.8,045.5,0.217,749.5,01.17,0.508
2017-03-29 00:54:00,1763E-3,5C000400,-0724,0837,12140,029.8,045.5,0.218,749.3,01.17,0.508
2017-03-29 00:55:00,1666E-3,5C000400,-0724,0836,12031,029.8,045.5,0.218,749.3,01.17,0.508
2017-03-29 00:56:00,1734E-3,5C000400,-0724,0836,11982,029.8,045.5,0.218,748.8,01.17,0.508
2017-03-29 00:57:00,1753E-3,5C000400,-0724,0837,12125,029.8,045.5,0.217,749.3,01.17,0.508
2017-03-29 00:58:00,1714E-3,5C000400,-0724,0836,11946,029.8,045.5,0.218,749.0,01.17,0.508
2017-03-29 00:59:00,1872E-3,5C000400,-0724,0836,12009,029.8,045.5,0.218,749.0,01.17,0.508
2017-03-29 01:00:00,1836E-3,5C000400,-0724,0837,12092,029.8,045.5,0.218,749.2,01.17,0.508
2017-03-29 01:01:00,1826E-3,5C000400,-0724,0836,11954,029.8,045.5,0.218,749.0,01.17,0.508
2017-03-29 01:02:00,1719E-3,5C000400,-0724,0836,11951,029.8,045.5,0.218,749.4,01.17,0.508
2017-03-29 01:03:00,1649E-3,5C000400,-0724,0836,12073,029.8,045.5,0.218,749.5,01.17,0.508
2017-03-29 01:04:00,1684E-3,5C000400,-0724,0836,12092,029.8,045.5,0.217,749.6,01.17,0.508
2017-03-29 01:05:00,1756E-3,5C000400,-0724,0837,12041,029.8,045.5,0.218,749.4,01.17,0.508
2017-03-29 01:06:00,1706E-3,5C000400,-0724,0837,11938,029.8,045.5,0.218,749.6,01.17,0.508
2017-03-29 01:07:00,1726E-3,5C000400,-0724,0836,12064,029.8,045.5,0.218,749.6,01.17,0.508
2017-03-29 01:08:00,1638E-3,5C000400,-0724,0837,12104,029.8,045.5,0.217,749.6,01.17,0.508
2017-03-29 01:09:00,1598E-3,5C000400,-0724,0837,12028,029.8,045.5,0.218,749.5,01.17,0.508
2017-03-29 01:10:00,1710E-3,5C000400,-0724,0837,11959,029.8,045.5,0.218,749.8,01.17,0.508
2017-03-29 01:11:00,1709E-3,5C000400,-0724,0836,12203,029.8,045.5,0.218,749.7,01.17,0.508
2017-03-29 01:12:00,1713E-3,5C000400,-0724,0836,11986,029.8,045.5,0.217,749.6,01.17,0.508
2017-03-29 01:13:00,1632E-3,5C000400,-0724,0837,12034,029.8,045.5,0.218,749.8,01.17,0.508
2017-03-29 01:14:00,1718E-3,5C000400,-0724,0836,11980,029.8,045.5,0.218,749.7,01.17,0.508
2017-03-29 01:15:00,1672E-3,5C000400,-0724,0837,12180,029.8,045.5,0.217,749.9,01.17,0.508
2017-03-29 01:16:00,1691E-3,5C000400,-0724,0836,11989,029.8,045.5,0.218,750.0,01.17,0.508
2017-03-29 01:17:00,1575E-3,5C000400,-0724,0837,12054,029.8,045.5,0.218,749.8,01.17,0.508
2017-03-29 01:18:00,1646E-3,5C000400,-0724,0836,12173,029.8,045.5,0.217,749.9,01.17,0.508
2017-03-29 01:19:00,1709E-3,5C000400,-0724,0836,11972,029.8,045.5,0.218,750.0,01.17,0.508
2017-03-29 01:20:00,1536E-3,5C000400,-0724,0837,12052,029.8,045.5,0.218,750.1,01.17,0.508
2017-03-29 01:21:00,1683E-3,5C000400,-0724,0837,12114,029.8,045.5,0.217,750.1,01.17,0.508
2017-03-29 01:22:00,1667E-3,5C000400,-0724,0836,11992,029.8,045.5,0.218,750.2,01.17,0.508
2017-03-29 01:23:00,1653E-3,5C000400,-0724,0837,12137,029.8,045.5,0.218,750.2,01.17,0.508
2017-03-29 01:24:00,1752E-3,5C000400,-0724,0836,12098,029.8,045.5,0.218,750.2,01.17,0.508
2017-03-29 01:25:00,1762E-3,5C000400,-0724,0836,11994,029.8,045.5,0.218,750.1,01.17,0.508
2017-03-29 01:26:00,1710E-3,5C000400,-0724,0836,12030,029.8,045.5,0.218,750.2,01.17,0.508
2017-03-29 01:27:00,1563E-3,5C000400,-0724,0836,12070,029.8,045.5,0.217,750.4,01.17,0.508
2017-03-29 01:28:00,1711E-3,5C000400,-0724,0837,11964,029.8,045.5,0.217,750.1,01.17,0.508
2017-03-29 01:29:00,1683E-3,5C000400,-0724,0837,11988,029.8,045.5,0.218,750.3,01.17,0.508
2017-03-29 01:30:00,1807E-3,5C000400,-0724,0836,12092,029.8,045.5,0.217,750.3,01.17,0.508
2017-03-29 01:31:00,1803E-3,5C000400,-0724,0836,12117,029.8,045.5,0.217,750.2,01.17,0.508
2017-03-29 01:32:00,1725E-3,5C000400,-0724,0836,12252,029.8,045.5,0.218,750.4,01.17,0.508
2017-03-29 01:33:00,1642E-3,5C000400,-0724,0837,12059,029.8,045.5,0.217,750.4,01.17,0.508
2017-03-29 01:34:00,1575E-3,5C000400,-0724,0837,12091,029.8,045.5,0.217,750.4,01.17,0.508
2017-03-29 01:35:00,1706E-3,5C000400,-0724,0836,12030,029.8,045.5,0.217,750.4,01.17,0.508
2017-03-29 01:36:00,1638E-3,5C000400,-0724,0836,12117,029.8,045.5,0.217,750.3,01.17,0.508
2017-03-29 01:37:00,1627E-3,5C000400,-0724,0837,11803,029.9,045.5,0.218,750.4,01.17,0.508
2017-03-29 01:38:00,1665E-3,5C000400,-0724,0836,12123,029.9,045.5,0.217,750.3,01.17,0.508
2017-03-29 01:39:00,1674E-3,5C000400,-0724,0836,12003,029.9,045.5,0.217,750.3,01.17,0.508
2017-03-29 01:40:00,1754E-3,5C000400,-0724,0837,12128,029.9,045.5,0.217,750.4,01.17,0.508
2017-03-29 01:41:00,1754E-3,5C000400,-0724,0836,12055,029.9,045.5,0.217,750.4,01.17,0.508
2017-03-29 01:42:00,1822E-3,5C000400,-0724,0837,12020,029.9,045.5,0.217,750.4,01.17,0.508
2017-03-29 01:43:00,1649E-3,5C000400,-0724,0837,12038,029.9,045.5,0.217,750.4,01.17,0.508
2017-03-29 01:44:00,1706E-3,5C000400,-0724,0836,12057,029.9,045.5,0.217,750.4,01.17,0.508
2017-03-29 01:45:00,1773E-3,5C000400,-0724,0837,12106,029.9,045.5,0.217,750.5,01.17,0.508
2017-03-29 01:46:00,1714E-3,5C000400,-0724,0837,12184,029.9,045.5,0.217,750.4,01.17,0.508
2017-03-29 01:47:00,1769E-3,5C000400,-0724,0836,12028,029.9,045.5,0.217,750.4,01.17,0.508
2017-03-29 01:48:00,1604E-3,5C000400,-0724,0837,12057,030.0,045.5,0.217,750.6,01.17,0.508
2017-03-29 01:49:00,1656E-3,5C000400,-0724,0836,12039,030.0,045.5,0.217,750.6,01.17,0.508
2017-03-29 01:50:00,1731E-3,5C000400,-0724,0837,11991,030.0,045.5,0.217,750.6,01.17,0.508
2017-03-29 01:51:00,1690E-3,5C000400,-0724,0836,12163,030.0,045.5,0.217,750.4,01.17,0.508
2017-03-29 01:52:00,1751E-3,5C000400,-0724,0836,12150,030.0,045.5,0.217,750.6,01.17,0.508
2017-03-29 01:53:00,1778E-3,5C000400,-0724,0836,12067,030.0,045.5,0.217,750.4,01.17,0.508
2017-03-29 01:54:00,1733E-3,5C000400,-0724,0837,12166,030.0,045.5,0.217,750.5,01.17,0.508
2017-03-29 01:55:00,1775E-3,5C000400,-0724,0836,11949,030.0,045.5,0.217,750.5,01.17,0.508
2017-03-29 01:56:00,1735E-3,5C000400,-0724,0836,11986,030.0,045.5,0.217,750.5,01.17,0.508
2017-03-29 01:57:00,1756E-3,5C000400,-0724,0837,12026,030.0,045.5,0.217,750.6,01.17,0.508
2017-03-29 01:58:00,1669E-3,5C000400,-0724,0837,12001,030.0,045.5,0.217,750.4,01.17,0.508
2017-03-29 01:59:00,1544E-3,5C000400,-0724,0836,12124,030.1,045.5,0.217,750.4,01.17,0.508
2017-03-29 02:00:00,1712E-3,5C000400,-0724,0837,12061,030.1,045.5,0.217,750.6,01.17,0.508
2017-03-29 02:01:00,1714E-3,5C000400,-0724,0837,12028,030.1,045.5,0.217,750.5,01.17,0.508
2017-03-29 02:02:00,1653E-3,5C000400,-0724,0837,12099,030.1,045.5,0.217,750.5,01.17,0.508
2017-03-29 02:03:00,1557E-3,5C000400,-0724,0836,12087,030.1,045.5,0.217,750.5,01.17,0.508
2017-03-29 02:04:00,1727E-3,5C000400,-0724,0836,11998,030.1,045.5,0.217,750.4,01.17,0.508
2017-03-29 02:05:00,1576E-3,5C000400,-0724,0837,12056,030.1,045.5,0.217,750.4,01.17,0.508
2017-03-29 02:06:00,1675E-3,5C000400,-0724,0837,12039,030.1,045.5,0.217,750.4,01.17,0.508
2017-03-29 02:07:00,1634E-3,5C000400,-0724,0836,12029,030.1,045.5,0.217,750.3,01.17,0.508
2017-03-29 02:08:00,1610E-3,5C000400,-0724,0837,11990,030.2,045.5,0.217,750.2,01.17,0.508
2017-03-29 02:09:00,1703E-3,5C000400,-0724,0837,12075,030.2,045.5,0.217,750.4,01.17,0.508
2017-03-29 02:10:00,1728E-3,5C000400,-0724,0837,12235,030.2,045.5,0.216,750.4,01.17,0.508
2017-03-29 02:11:00,1741E-3,5C000400,-0724,0837,12138,030.2,045.5,0.217,750.3,01.17,0.508
2017-03-29 02:12:00,1697E-3,5C000400,-0724,0837,12070,030.2,045.5,0.217,750.2,01.17,0.508
2017-03-29 02:13:00,1729E-3,5C000400,-0724,0836,11955,030.2,045.5,0.216,750.2,01.17,0.508
2017-03-29 02:14:00,1597E-3,5C000400,-0724,0837,12191,030.2,045.5,0.217,750.1,01.17,0.508
2017-03-29 02:15:00,1759E-3,5C000400,-0724,0836,12008,030.2,045.5,0.217,750.1,01.17,0.508
2017-03-29 02:16:00,1733E-3,5C000400,-0724,0836,12182,030.2,045.5,0.217,750.0,01.17,0.508
2017-03-29 02:17:00,1834E-3,5C000400,-0724,0838,12106,030.2,045.5,0.216,749.9,01.17,0.508
2017-03-29 02:18:00,1853E-3,5C000400,-0724,0837,12041,030.2,045.5,0.217,749.8,01.17,0.508
2017-03-29 02:19:00,1803E-3,5C000400,-0724,0837,12065,030.3,045.5,0.217,749.8,01.17,0.508
2017-03-29 02:20:00,1747E-3,5C000400,-0724,0836,11927,030.3,045.5,0.216,749.6,01.17,0.508
2017-03-29 02:21:00,1726E-3,5C000400,-0724,0836,12048,030.3,045.5,0.216,749.6,01.17,0.508
2017-03-29 02:22:00,1728E-3,5C000400,-0724,0837,12100,030.3,045.5,0.216,749.7,01.17,0.508
2017-03-29 02:23:00,1862E-3,5C000400,-0724,0837,12010,030.3,045.5,0.217,749.6,01.17,0.508
2017-03-29 02:24:00,1579E-3,5C000400,-0724,0837,12042,030.3,045.5,0.217,749.4,01.17,0.508
2017-03-29 02:25:00,1709E-3,5C000400,-0724,0837,12045,030.3,045.5,0.217,749.5,01.17,0.508
2017-03-29 02:26:00,1797E-3,5C000400,-0724,0837,12227,030.3,045.5,0.217,749.4,01.17,0.508
2017-03-29 02:27:00,1704E-3,5C000400,-0724,0837,12103,030.3,045.5,0.216,749.5,01.17,0.508
2017-03-29 02:28:00,1607E-3,5C000400,-0724,0837,11924,030.3,045.5,0.216,749.5,01.17,0.508
2017-03-29 02:29:00,1694E-3,5C000400,-0724,0837,12055,030.3,045.5,0.217,749.5,01.17,0.508
2017-03-29 02:30:00,1673E-3,5C000400,-0724,0836,12090,030.3,045.5,0.216,749.3,01.17,0.508
2017-03-29 02:31:00,1764E-3,5C000400,-0724,0836,12159,030.3,045.5,0.216,749.5,01.17,0.508
2017-03-29 02:32:00,1628E-3,5C000400,-0724,0836,12094,030.3,045.5,0.216,749.5,01.17,0.508
2017-03-29 02:33:00,1577E-3,5C000400,-0724,0837,12076,030.4,045.5,0.216,749.3,01.17,0.508
2017-03-29 02:34:00,1769E-3,5C000400,-0724,0836,12004,030.4,045.5,0.216,749.3,01.17,0.508
2017-03-29 02:35:00,1770E-3,5C000400,-0724,0837,11951,030.4,045.5,0.216,749.4,01.17,0.508
2017-03-29 02:36:00,1573E-3,5C000400,-0724,0837,12038,030.4,045.5,0.216,749.0,01.17,0.508
2017-03-29 02:37:00,1767E-3,5C000400,-0724,0836,12022,030.4,045.5,0.216,749.2,01.17,0.508
2017-03-29 02:38:00,1699E-3,5C000400,-0724,0836,12102,030.4,045.5,0.216,749.0,01.17,0.508
2017-03-29 02:39:00,1607E-3,5C000400,-0724,0836,12043,030.4,045.5,0.217,749.0,01.17,0.508
2017-03-29 02:40:00,1803E-3,5C000400,-0724,0838,12054,030.4,045.5,0.216,748.9,01.17,0.508
2017-03-29 02:41:00,1744E-3,5C000400,-0724,0837,12159,030.4,045.5,0.216,749.1,01.17,0.508
2017-03-29 02:42:00,1792E-3,5C000400,-0724,0837,12091,030.4,045.5,0.216,748.9,01.17,0.508
2017-03-29 02:43:00,1653E-3,5C000400,-0724,0836,12070,030.4,045.5,0.216,749.1,01.17,0.508
2017-03-29 02:44:00,1693E-3,5C000400,-0724,0836,11961,030.4,045.5,0.216,748.7,01.17,0.508
2017-03-29 02:45:00,1742E-3,5C000400,-0724,0836,11900,030.4,045.5,0.216,748.6,01.17,0.508
2017-03-29 02:46:00,1530E-3,5C000400,-0724,0836,11990,030.4,045.5,0.216,749.0,01.17,0.508
2017-03-29 02:47:00,1505E-3,5C000400,-0724,0836,12024,030.4,045.5,0.216,749.1,01.17,0.508
2017-03-29 02:48:00,1809E-3,5C000400,-0724,0837,12188,030.4,045.5,0.217,748.7,01.17,0.508
2017-03-29 02:49:00,1751E-3,5C000400,-0724,0836,12042,030.4,045.5,0.216,749.1,01.17,0.508
2017-03-29 02:50:00,1809E-3,5C000400,-0724,0837,12095,030.4,045.5,0.216,748.9,01.17,0.508
2017-03-29 02:51:00,1886E-3,5C000400,-0724,0836,12042,030.4,045.5,0.216,748.5,01.17,0.508
2017-03-29 02:52:00,1662E-3,5C000400,-0724,0837,11914,030.4,045.5,0.216,748.7,01.17,0.508
2017-03-29 02:53:00,1713E-3,5C000400,-0724,0837,12083,030.4,045.5,0.216,748.6,01.17,0.508
2017-03-29 02:54:00,1736E-3,5C000400,-0724,0838,12008,030.4,045.5,0.217,748.8,01.17,0.508
2017-03-29 02:55:00,1556E-3,5C000400,-0724,0837,12076,030.4,045.5,0.216,748.6,01.17,0.508
2017-03-29 02:56:00,1745E-3,5C000400,-0724,0837,12000,030.4,045.5,0.216,748.7,01.17,0.508
2017-03-29 02:57:00,1658E-3,5C000400,-0724,0837,12012,030.4,045.5,0.216,748.8,01.17,0.508
2017-03-29 02:58:00,1743E-3,5C000400,-0724,0837,12067,030.4,045.5,0.216,748.6,01.17,0.508
2017-03-29 02:59:00,1623E-3,5C000400,-0724,0837,12029,030.4,045.5,0.216,748.3,01.17,0.508
2017-03-29 03:00:00,1830E-3,5C000400,-0724,0837,12187,030.4,045.5,0.216,749.0,01.17,0.508
2017-03-29 03:01:00,1732E-3,5C000400,-0724,0837,12176,030.4,045.5,0.216,749.0,01.17,0.508
2017-03-29 03:02:00,1739E-3,5C000400,-0724,0836,11910,030.4,045.5,0.216,748.9,01.17,0.508
2017-03-29 03:03:00,1698E-3,5C000400,-0724,0837,11920,030.4,045.5,0.216,748.8,01.17,0.508
2017-03-29 03:04:00,1696E-3,5C000400,-0724,0836,12134,030.4,045.5,0.216,748.7,01.17,0.508
2017-03-29 03:05:00,1544E-3,5C000400,-0724,0837,12080,030.4,045.5,0.216,748.7,01.17,0.508
2017-03-29 03:06:00,1631E-3,5C000400,-0724,0836,12042,030.4,045.5,0.216,748.7,01.17,0.508
2017-03-29 03:07:00,1798E-3,5C000400,-0724,0837,12009,030.4,045.5,0.216,748.8,01.17,0.508
2017-03-29 03:08:00,1738E-3,5C000400,-0724,0837,12003,030.4,045.5,0.216,748.8,01.17,0.508
2017-03-29 03:09:00,1675E-3,5C000400,-0724,0837,11955,030.4,045.5,0.216,748.9,01.17,0.508
2017-03-29 03:10:00,1649E-3,5C000400,-0724,0837,12034,030.4,045.5,0.216,749.0,01.17,0.508
2017-03-29 03:11:00,1864E-3,5C000400,-0724,0837,12023,030.4,045.5,0.217,749.0,01.17,0.508
2017-03-29 03:12:00,1738E-3,5C000400,-0724,0837,12068,030.4,045.5,0.217,749.1,01.17,0.508
2017-03-29 03:13:00,1667E-3,5C000400,-0724,0837,12083,030.4,045.5,0.216,748.9,01.17,0.508
2017-03-29 03:14:00,1843E-3,5C000400,-0724,0837,12021,030.4,045.5,0.216,748.9,01.17,0.508
2017-03-29 03:15:00,1752E-3,5C000400,-0724,0837,12075,030.4,045.5,0.216,749.1,01.17,0.508
2017-03-29 03:16:00,1716E-3,5C000400,-0724,0837,12167,030.4,045.5,0.216,749.2,01.17,0.508
2017-03-29 03:17:00,1777E-3,5C000400,-0724,0837,12143,030.4,045.5,0.216,749.1,01.17,0.508
2017-03-29 03:18:00,1642E-3,5C000400,-0724,0837,12077,030.4,045.5,0.216,749.0,01.17,0.508
2017-03-29 03:19:00,1707E-3,5C000400,-0724,0836,12123,030.4,045.5,0.216,749.0,01.17,0.508
2017-03-29 03:20:00,1764E-3,5C000400,-0724,0837,12108,030.4,045.5,0.216,748.9,01.17,0.508
2017-03-29 03:21:00,1743E-3,5C000400,-0724,0837,12030,030.4,045.5,0.216,749.0,01.17,0.508
2017-03-29 03:22:00,1715E-3,5C000400,-0724,0837,12017,030.4,045.5,0.216,748.7,01.17,0.508
2017-03-29 03:23:00,1727E-3,5C000400,-0724,0837,12105,030.4,045.5,0.216,748.9,01.17,0.508
2017-03-29 03:24:00,1694E-3,5C000400,-0724,0837,11984,030.4,045.5,0.216,748.7,01.17,0.508
2017-03-29 03:25:00,1748E-3,5C000400,-0724,0837,12072,030.4,045.5,0.217,748.7,01.17,0.508
2017-03-29 03:26:00,1809E-3,5C000400,-0724,0837,12241,030.4,045.5,0.217,748.8,01.17,0.508
2017-03-29 03:27:00,1707E-3,5C000400,-0724,0838,12074,030.4,045.5,0.216,748.5,01.17,0.508
2017-03-29 03:28:00,1700E-3,5C000400,-0724,0837,12104,030.4,045.5,0.216,748.5,01.17,0.508
2017-03-29 03:29:00,1582E-3,5C000400,-0724,0837,12123,030.4,045.5,0.216,748.6,01.17,0.508
2017-03-29 03:30:00,1603E-3,5C000400,-0724,0837,12094,030.4,045.5,0.216,748.5,01.17,0.508
2017-03-29 03:31:00,1783E-3,5C000400,-0724,0837,12028,030.4,045.5,0.216,748.3,01.17,0.508
2017-03-29 03:32:00,1725E-3,5C000400,-0724,0836,11942,030.4,045.5,0.216,748.6,01.17,0.508
2017-03-29 03:33:00,1792E-3,5C000400,-0724,0837,12066,030.4,045.5,0.216,748.7,01.17,0.508
2017-03-29 03:34:00,1764E-3,5C000400,-0724,0836,12033,030.4,045.5,0.216,748.4,01.17,0.508
2017-03-29 03:35:00,1692E-3,5C000400,-0724,0836,12060,030.4,045.5,0.216,748.5,01.17,0.508
2017-03-29 03:36:00,1718E-3,5C000400,-0724,0836,12146,030.4,045.5,0.216,748.3,01.17,0.508
2017-03-29 03:37:00,1671E-3,5C000400,-0724,0836,12122,030.3,045.5,0.216,748.8,01.17,0.508
2017-03-29 03:38:00,1709E-3,5C000400,-0724,0837,12024,030.4,045.5,0.216,748.6,01.17,0.508
2017-03-29 03:39:00,1678E-3,5C000400,-0724,0837,12067,030.3,045.5,0.216,748.6,01.17,0.508
2017-03-29 03:40:00,1568E-3,5C000400,-0724,0837,11985,030.3,045.5,0.216,748.7,01.17,0.508
2017-03-29 03:41:00,1709E-3,5C000400,-0724,0836,11996,030.3,045.5,0.216,748.8,01.17,0.508
2017-03-29 03:42:00,1589E-3,5C000400,-0724,0836,11941,030.3,045.5,0.216,748.7,01.17,0.508
2017-03-29 03:43:00,1726E-3,5C000400,-0724,0837,12083,030.3,045.5,0.216,748.7,01.17,0.508
2017-03-29 03:44:00,1674E-3,5C000400,-0724,0836,12123,030.3,045.5,0.216,748.5,01.17,0.508
2017-03-29 03:45:00,1798E-3,5C000400,-0724,0837,12095,030.3,045.5,0.216,748.3,01.17,0.508
2017-03-29 03:46:00,1664E-3,5C000400,-0724,0837,12116,030.3,045.5,0.216,748.1,01.17,0.508
2017-03-29 03:47:00,1758E-3,5C000400,-0724,0836,12013,030.3,045.5,0.216,748.4,01.17,0.508
2017-03-29 03:48:00,1622E-3,5C000400,-0724,0837,12035,030.3,045.5,0.216,748.4,01.17,0.508
2017-03-29 03:49:00,1727E-3,5C000400,-0724,0837,12128,030.3,045.5,0.216,748.7,01.17,0.508
2017-03-29 03:50:00,1630E-3,5C000400,-0724,0837,12083,030.3,045.5,0.216,748.3,01.17,0.508
2017-03-29 03:51:00,1666E-3,5C000400,-0724,0835,12006,030.3,045.5,0.216,748.5,01.17,0.508
2017-03-29 03:52:00,1658E-3,5C000400,-0724,0836,12063,030.3,045.5,0.217,748.4,01.17,0.508
2017-03-29 03:53:00,1801E-3,5C000400,-0724,0836,12028,030.3,045.5,0.217,748.4,01.17,0.508
2017-03-29 03:54:00,1643E-3,5C000400,-0724,0837,12089,030.3,045.5,0.216,748.6,01.17,0.508
2017-03-29 03:55:00,1781E-3,5C000400,-0724,0836,12080,030.3,045.5,0.217,748.4,01.17,0.508
2017-03-29 03:56:00,1707E-3,5C000400,-0724,0837,11772,030.3,045.5,0.216,748.4,01.17,0.508
2017-03-29 03:57:00,1701E-3,5C000400,-0724,0837,12155,030.3,045.5,0.216,748.3,01.17,0.508
2017-03-29 03:58:00,1746E-3,5C000400,-0724,0837,12010,030.3,045.5,0.216,748.3,01.17,0.508
2017-03-29 03:59:00,1648E-3,5C000400,-0724,0836,12222,030.3,045.5,0.216,748.7,01.17,0.508
2017-03-29 04:00:00,1785E-3,5C000400,-0724,0836,12070,030.3,045.5,0.216,748.5,01.17,0.508
2017-03-29 04:01:00,1737E-3,5C000400,-0724,0837,12088,030.3,045.5,0.217,748.6,01.17,0.508
2017-03-29 04:02:00,1576E-3,5C000400,-0724,0837,12131,030.3,045.5,0.216,748.6,01.17,0.508
2017-03-29 04:03:00,1632E-3,5C000400,-0724,0837,12069,030.3,045.5,0.217,748.4,01.17,0.508
2017-03-29 04:04:00,1702E-3,5C000400,-0724,0836,12092,030.3,045.5,0.217,748.5,01.17,0.508
2017-03-29 04:05:00,1735E-3,5C000400,-0724,0836,11813,030.3,045.5,0.217,748.5,01.17,0.508
2017-03-29 04:06:00,1693E-3,5C000400,-0724,0836,11975,030.3,045.5,0.217,748.2,01.17,0.508
2017-03-29 04:07:00,1677E-3,5C000400,-0724,0836,11922,030.3,045.5,0.216,748.4,01.17,0.508
2017-03-29 04:08:00,1731E-3,5C000400,-0724,0837,12014,030.3,045.5,0.216,748.2,01.17,0.508
2017-03-29 04:09:00,1775E-3,5C000400,-0724,0836,11902,030.3,045.5,0.216,748.6,01.17,0.508
2017-03-29 04:10:00,1684E-3,5C000400,-0724,0836,11866,030.3,045.5,0.216,748.3,01.17,0.508
2017-03-29 04:11:00,1707E-3,5C000400,-0724,0836,12060,030.2,045.5,0.216,748.3,01.17,0.508
2017-03-29 04:12:00,1559E-3,5C000400,-0724,0837,12015,030.3,045.5,0.216,748.2,01.17,0.508
2017-03-29 04:13:00,1877E-3,5C000400,-0724,0836,12074,030.2,045.5,0.217,748.2,01.17,0.508
2017-03-29 04:14:00,1792E-3,5C000400,-0724,0837,12130,030.3,045.6,0.217,748.5,01.17,0.508
2017-03-29 04:15:00,1615E-3,5C000400,-0724,0836,12118,030.3,045.5,0.217,748.6,01.17,0.508
2017-03-29 04:16:00,1718E-3,5C000400,-0724,0836,12178,030.2,045.5,0.217,748.7,01.17,0.508
2017-03-29 04:17:00,1776E-3,5C000400,-0724,0837,12089,030.2,045.5,0.217,748.3,01.17,0.508
2017-03-29 04:18:00,1609E-3,5C000400,-0724,0836,12032,030.3,045.5,0.217,748.6,01.17,0.508
2017-03-29 04:19:00,1644E-3,5C000400,-0724,0836,11986,030.2,045.5,0.217,748.5,01.17,0.508
2017-03-29 04:20:00,1761E-3,5C000400,-0724,0835,11990,030.2,045.5,0.217,748.4,01.17,0.508